KI5NYZ Weather Reports


Display with metric or nautical units.
time (UTC)temp
F
wind
direction
speed
MPH
gust
MPH
rain 1hr
in
rain 24hr
in
rain mn
in
humidity
%
barometer
mb
20260509064540 68 122 2.0 4.0 0.00 0.00 0.00 33 1012.2
20260509063521 69 110 3.0 4.0 0.00 0.00 0.00 31 1012.3
20260509062521 69 111 4.0 6.0 0.00 0.00 0.00 31 1012.2
20260509061521 69 189 0.0 1.0 0.00 0.00 0.00 35 1012.3
20260509060521 70 111 3.0 6.0 0.00 0.00 0.00 36 1012.3
20260509055521 69 111 3.0 4.0 0.00 0.00 0.00 39 1012.4
20260509054521 68 117 2.0 5.0 0.00 0.00 0.00 49 1012.5
20260509053521 69 160 0.0 1.0 0.00 0.00 0.00 48 1012.6
20260509052523 69 118 0.0 2.0 0.00 0.00 0.00 47 1012.6
20260509051521 69 113 3.0 4.0 0.00 0.00 0.00 48 1012.6
20260509050546 70 100 2.0 4.0 0.00 0.00 0.00 46 1012.4
20260509045522 71 243 1.0 3.0 0.00 0.00 0.00 45 1012.2
20260509044536 73 223 1.0 4.0 0.00 0.00 0.00 43 1012.3
20260509043520 74 198 1.0 4.0 0.00 0.00 0.00 42 1012.4
20260509042540 75 148 0.0 1.0 0.00 0.00 0.00 41 1012.4
20260509041520 77 262 2.0 3.0 0.00 0.00 0.00 39 1012.4
20260509040521 78 304 3.0 7.0 0.00 0.00 0.00 37 1012.4
20260509035520 77 346 4.0 8.0 0.00 0.00 0.00 37 1012.3
20260509034522 75 102 3.0 5.0 0.00 0.00 0.00 39 1012.0
20260509033521 71 35 6.0 12.0 0.00 0.00 0.00 43 1011.7
20260509032520 71 90 0.0 2.0 0.00 0.00 0.00 45 1011.0
20260509031522 72 109 0.0 3.0 0.00 0.00 0.00 41 1010.6
20260509030522 73 187 2.0 6.0 0.00 0.00 0.00 39 1010.3
20260509025521 74 205 3.0 10.0 0.00 0.00 0.00 34 1010.0
20260509024544 75 187 2.0 6.0 0.00 0.00 0.00 31 1009.8
20260509023521 76 176 3.0 6.0 0.00 0.00 0.00 29 1009.7
20260509022521 78 185 4.0 8.0 0.00 0.00 0.00 22 1009.4
20260509021522 79 193 2.0 4.0 0.00 0.00 0.00 19 1009.1
20260509020520 80 197 2.0 4.0 0.00 0.00 0.00 19 1009.0
20260509015520 80 184 1.0 2.0 0.00 0.00 0.00 19 1008.9
20260509014525 81 181 0.0 3.0 0.00 0.00 0.00 19 1008.7
20260509013519 83 188 2.0 4.0 0.00 0.00 0.00 18 1008.6
20260509012523 85 190 1.0 4.0 0.00 0.00 0.00 17 1008.5
20260509011540 86 185 2.0 5.0 0.00 0.00 0.00 16 1008.4
20260509010520 87 195 2.0 5.0 0.00 0.00 0.00 15 1008.3
20260509005520 88 192 3.0 6.0 0.00 0.00 0.00 15 1008.2
20260509004519 88 200 3.0 6.0 0.00 0.00 0.00 15 1008.1
20260509003519 89 186 1.0 5.0 0.00 0.00 0.00 14 1008.1
20260509002521 89 183 2.0 4.0 0.00 0.00 0.00 14 1008.1
20260509001521 91 191 1.0 3.0 0.00 0.00 0.00 14 1008.1
20260509000521 90 187 0.0 3.0 0.00 0.00 0.00 14 1008.1
20260508235523 90 185 1.0 3.0 0.00 0.00 0.00 14 1008.1
20260508234541 89 294 3.0 5.0 0.00 0.00 0.00 14 1008.0
20260508233521 90 243 4.0 8.0 0.00 0.00 0.00 15 1008.0
20260508232522 89 213 1.0 5.0 0.00 0.00 0.00 15 1008.1
20260508231541 90 284 4.0 8.0 0.00 0.00 0.00 14 1008.1
20260508230523 89 294 2.0 5.0 0.00 0.00 0.00 15 1008.1
20260508225521 89 287 7.0 11.0 0.00 0.00 0.00 15 1008.1
20260508224522 89 286 4.0 9.0 0.00 0.00 0.00 15 1008.2
20260508223539 88 52 1.0 4.0 0.00 0.00 0.00 16 1008.3
20260508222519 88 252 5.0 13.0 0.00 0.00 0.00 16 1008.3
20260508221521 89 316 5.0 9.0 0.00 0.00 0.00 16 1008.4
20260508220520 89 155 1.0 3.0 0.00 0.00 0.00 16 1008.4
20260508215522 88 310 6.0 10.0 0.00 0.00 0.00 17 1008.5
20260508214526 88 259 3.0 8.0 0.00 0.00 0.00 17 1008.6
20260508213523 88 257 5.0 9.0 0.00 0.00 0.00 17 1008.7
20260508212519 88 278 5.0 8.0 0.00 0.00 0.00 17 1008.8
20260508211521 88 315 2.0 8.0 0.00 0.00 0.00 17 1009.0
20260508210540 87 247 3.0 6.0 0.00 0.00 0.00 18 1009.1
20260508205520 87 329 4.0 7.0 0.00 0.00 0.00 17 1009.3
20260508204520 88 312 6.0 9.0 0.00 0.00 0.00 18 1009.4
20260508203520 87 196 2.0 6.0 0.00 0.00 0.00 19 1009.5
20260508202521 86 156 2.0 7.0 0.00 0.00 0.00 20 1009.8
20260508201522 86 226 3.0 5.0 0.00 0.00 0.00 19 1010.0
20260508200523 87 261 4.0 11.0 0.00 0.00 0.00 16 1010.1
20260508195541 85 276 1.0 5.0 0.00 0.00 0.00 19 1010.2
20260508194542 85 318 5.0 8.0 0.00 0.00 0.00 20 1010.3
20260508193539 84 328 6.0 13.0 0.00 0.00 0.00 24 1010.4
20260508192519 84 294 2.0 6.0 0.00 0.00 0.00 26 1010.5
20260508191520 83 223 4.0 10.0 0.00 0.00 0.00 31 1010.6
20260508190519 82 281 6.0 9.0 0.00 0.00 0.00 32 1010.7
20260508185519 82 250 4.0 9.0 0.00 0.00 0.00 33 1010.9
20260508184519 82 258 4.0 8.0 0.00 0.00 0.00 36 1011.0
20260508183541 80 231 4.0 9.0 0.00 0.00 0.00 39 1011.3
20260508182520 79 251 3.0 9.0 0.00 0.00 0.00 45 1011.5
20260508181519 78 218 4.0 9.0 0.00 0.00 0.00 46 1011.8
20260508180541 77 237 4.0 8.0 0.00 0.00 0.00 49 1012.0
20260508175520 77 241 4.0 9.0 0.00 0.00 0.00 50 1012.2
20260508174521 76 255 3.0 8.0 0.00 0.00 0.00 52 1012.4
20260508173521 76 235 3.0 7.0 0.00 0.00 0.00 55 1012.4
20260508172521 74 240 3.0 10.0 0.00 0.00 0.00 55 1012.6
20260508171520 74 251 5.0 16.0 0.00 0.00 0.00 57 1012.7
20260508170525 73 259 6.0 14.0 0.00 0.00 0.00 59 1012.8
20260508165521 72 254 6.0 17.0 0.00 0.00 0.00 61 1013.0
20260508164521 71 225 4.0 14.0 0.00 0.00 0.00 62 1013.1
20260508163601 71 233 6.0 15.0 0.00 0.00 0.00 64 1013.2
20260508162518 69 221 5.0 13.0 0.00 0.00 0.00 67 1013.4
20260508161521 68 224 3.0 8.0 0.00 0.00 0.00 69 1013.4
20260508160519 68 237 4.0 10.0 0.00 0.00 0.00 68 1013.5
20260508155521 67 239 3.0 6.0 0.00 0.00 0.00 73 1013.7
20260508154520 67 234 3.0 11.0 0.00 0.00 0.00 73 1013.7
20260508153519 65 233 3.0 7.0 0.00 0.00 0.00 75 1013.8
20260508152519 65 242 6.0 12.0 0.00 0.00 0.00 76 1013.9
20260508151600 64 247 8.0 12.0 0.00 0.00 0.00 79 1014.0
20260508150519 64 244 8.0 11.0 0.00 0.00 0.00 79 1014.0
20260508145520 63 233 8.0 13.0 0.00 0.00 0.00 80 1013.9
20260508144520 63 210 4.0 10.0 0.00 0.00 0.00 80 1014.0
20260508143541 63 221 5.0 10.0 0.00 0.00 0.00 81 1014.1
20260508142540 63 231 6.0 11.0 0.00 0.00 0.00 81 1014.2
20260508141520 63 227 5.0 11.0 0.00 0.00 0.00 80 1014.1
20260508140520 62 206 3.0 6.0 0.00 0.00 0.00 81 1014.0
20260508135521 61 229 3.0 7.0 0.00 0.00 0.00 83 1014.0
20260508134543 60 204 2.0 5.0 0.00 0.00 0.00 84 1014.1
20260508133522 60 200 2.0 5.0 0.00 0.00 0.00 84 1014.0
20260508132521 60 202 3.0 6.0 0.00 0.00 0.00 83 1014.1
20260508131523 60 194 2.0 5.0 0.00 0.00 0.00 83 1014.0
20260508130542 60 205 2.0 5.0 0.00 0.00 0.00 83 1013.9
20260508125520 60 219 3.0 7.0 0.00 0.00 0.00 83 1013.8
20260508124522 59 207 1.0 4.0 0.00 0.00 0.00 83 1013.7
20260508123521 59 213 1.0 3.0 0.00 0.00 0.00 83 1013.6
20260508122519 59 206 1.0 4.0 0.00 0.00 0.00 84 1013.5
20260508121539 58 218 1.0 4.0 0.00 0.00 0.00 84 1013.6
20260508120520 58 237 1.0 3.0 0.00 0.00 0.00 85 1013.6
20260508115521 58 231 2.0 3.0 0.00 0.00 0.00 85 1013.5
20260508114522 58 234 2.0 4.0 0.00 0.00 0.00 85 1013.5
20260508113519 58 225 3.0 4.0 0.00 0.00 0.00 85 1013.6
20260508112524 57 216 1.0 3.0 0.00 0.00 0.00 85 1013.6
20260508111522 57 203 1.0 4.0 0.00 0.00 0.00 85 1013.6
20260508110522 57 211 2.0 4.0 0.00 0.00 0.00 85 1013.6
20260508105520 56 232 2.0 5.0 0.00 0.00 0.00 86 1013.6
20260508104521 56 234 3.0 4.0 0.00 0.00 0.00 86 1013.7
20260508103520 55 221 2.0 4.0 0.00 0.00 0.00 87 1013.6
20260508102523 55 261 2.0 4.0 0.00 0.00 0.00 87 1013.5
20260508101521 53 233 2.0 4.0 0.00 0.00 0.00 89 1013.6
20260508100523 52 253 0.0 2.0 0.00 0.00 0.00 90 1013.7
20260508095521 52 220 1.0 2.0 0.00 0.00 0.00 89 1013.5
20260508094521 52 200 1.0 3.0 0.00 0.00 0.00 87 1013.5
20260508093521 53 293 0.0 0.0 0.00 0.00 0.00 86 1013.6
20260508092521 53 200 1.0 5.0 0.00 0.00 0.00 86 1013.4
20260508091519 53 194 1.0 3.0 0.00 0.00 0.00 84 1013.5
20260508090520 53 203 1.0 3.0 0.00 0.00 0.00 84 1013.6
20260508085520 53 197 1.0 3.0 0.00 0.00 0.00 83 1013.6
20260508084520 54 199 0.0 2.0 0.00 0.00 0.00 82 1013.7
20260508083521 54 194 2.0 5.0 0.00 0.00 0.00 82 1013.6
20260508082520 54 207 1.0 4.0 0.00 0.00 0.00 81 1013.7
20260508081520 54 199 2.0 7.0 0.00 0.00 0.00 80 1013.7
20260508080520 54 200 3.0 7.0 0.00 0.00 0.00 79 1013.8
20260508075520 55 180 0.0 3.0 0.00 0.00 0.00 78 1014.1
20260508074521 55 193 2.0 5.0 0.00 0.00 0.00 76 1014.0
20260508073520 55 200 5.0 8.0 0.00 0.00 0.00 74 1014.0
20260508072520 55 202 3.0 6.0 0.00 0.00 0.00 72 1014.3
20260508071521 55 194 2.0 4.0 0.00 0.00 0.00 71 1014.5
20260508070523 55 201 3.0 5.0 0.00 0.00 0.00 70 1014.4
20260508065522 55 203 4.0 7.0 0.00 0.00 0.00 69 1014.5